FW9843 Weather Reports


time (UTC)temp
F
wind
direction
speed
knots
gust
knots
rain 1hr
in
rain 24hr
in
rain mn
in
humidity
%
barometer
mb
20260906105858 72 143 0.0 0.0 0.00 0.00 0.00 90 1012.1
20260906105353 73 143 0.0 0.0 0.00 0.00 0.00 90 1012.1
20260906104849 73 143 0.0 0.0 0.00 0.00 0.00 90 1012.2
20260906104345 73 143 0.0 0.0 0.00 0.00 0.00 90 1012.1
20260906103841 73 143 0.0 0.0 0.00 0.00 0.00 90 1012.1
20260906103332 73 143 0.0 0.0 0.00 0.00 0.00 90 1012.2
20260906102834 73 143 0.0 0.0 0.00 0.00 0.00 90 1012.2
20260906102320 73 143 0.0 0.0 0.00 0.00 0.00 90 1012.1
20260906102058 73 143 0.0 0.0 0.00 0.00 0.00 90 1012.2
20260906101313 73 143 0.0 0.0 0.00 0.00 0.00 90 1012.2
20260906101049 73 143 0.0 0.0 0.00 0.00 0.00 90 1012.2
20260906100308 72 143 0.0 0.0 0.00 0.00 0.00 90 1012.1
20260906095804 72 143 0.0 0.0 0.00 0.00 0.00 90 1012.2
20260906095305 72 143 0.0 0.0 0.00 0.00 0.00 90 1012.3
20260906094804 72 143 0.0 0.0 0.00 0.00 0.00 90 1012.3
20260906094306 72 143 0.0 0.0 0.00 0.00 0.00 90 1012.3
20260906093806 72 143 0.0 0.0 0.00 0.00 0.00 91 1012.3
20260906093307 72 143 0.0 0.0 0.00 0.00 0.00 90 1012.3
20260906092805 72 143 0.0 0.0 0.00 0.00 0.00 90 1012.4
20260906092306 72 143 0.0 0.0 0.00 0.00 0.00 90 1012.3
20260906091807 72 143 0.0 0.0 0.00 0.00 0.00 90 1012.3
20260906091543 72 143 0.0 0.0 0.00 0.00 0.00 90 1012.3
20260906090805 72 143 0.0 0.0 0.00 0.00 0.00 90 1012.2
20260906090304 73 143 0.0 0.0 0.00 0.00 0.00 90 1012.2
20260906085805 72 143 0.0 0.0 0.00 0.00 0.00 90 1012.2
20260906085307 72 143 0.0 0.0 0.00 0.00 0.00 90 1012.1
20260906085109 72 143 0.0 0.0 0.00 0.00 0.00 90 1012.1
20260906084303 72 143 0.0 0.0 0.00 0.00 0.00 90 1012.1
20260906083803 72 143 0.0 0.0 0.00 0.00 0.00 90 1012.0
20260906083302 72 143 0.0 0.0 0.00 0.00 0.00 90 1012.1
20260906082755 72 143 0.0 0.0 0.00 0.00 0.00 90 1012.1
20260906082251 72 143 0.0 0.0 0.00 0.00 0.00 91 1012.0
20260906081741 72 143 0.0 0.0 0.00 0.00 0.00 90 1012.0
20260906081237 72 143 0.0 0.0 0.00 0.00 0.00 90 1012.0
20260906080732 72 143 0.0 0.0 0.00 0.00 0.00 90 1012.0
20260906080229 72 143 0.0 0.0 0.00 0.00 0.00 90 1012.1
20260906075727 73 143 0.0 0.0 0.00 0.00 0.00 90 1012.0
20260906075220 72 143 0.0 0.0 0.00 0.00 0.00 90 1011.9
20260906074716 73 143 0.0 0.0 0.00 0.00 0.00 90 1012.1
20260906074213 73 143 0.0 0.0 0.00 0.00 0.00 90 1012.0
20260906073708 73 143 0.0 0.0 0.00 0.00 0.00 90 1012.1
20260906073206 73 143 0.0 0.0 0.00 0.00 0.00 90 1012.1
20260906072703 73 143 0.0 0.0 0.00 0.00 0.00 90 1012.0
20260906072446 73 143 0.0 0.0 0.00 0.00 0.00 90 1012.1
20260906071704 73 143 0.0 0.0 0.00 0.00 0.00 90 1011.9
20260906071152 73 143 0.0 0.0 0.00 0.00 0.00 90 1011.9
20260906070649 73 143 0.0 0.0 0.00 0.00 0.00 90 1011.9
20260906070137 73 143 0.0 0.0 0.00 0.00 0.00 90 1011.8
20260906065632 73 143 0.0 0.0 0.00 0.00 0.00 90 1011.9
20260906065130 73 143 0.0 0.0 0.00 0.00 0.00 90 1011.9
20260906064632 73 143 0.0 0.0 0.00 0.00 0.00 89 1012.0
20260906064130 73 143 0.0 0.0 0.00 0.00 0.00 89 1012.1
20260906063632 73 143 0.0 0.0 0.00 0.00 0.00 89 1012.2
20260906063126 73 143 0.0 0.0 0.00 0.00 0.00 89 1012.2
20260906062622 74 143 0.0 0.0 0.00 0.00 0.00 89 1012.4
20260906062112 73 143 0.0 0.0 0.00 0.00 0.00 89 1012.5
20260906061631 74 143 0.0 0.0 0.00 0.00 0.00 89 1012.6
20260906060557 74 143 0.0 0.0 0.00 0.00 0.00 89 1012.7
20260906060053 74 143 0.0 0.9 0.00 0.00 0.00 89 1012.6
20260906055549 74 143 0.0 0.9 0.00 0.00 0.00 89 1012.6
20260906055047 74 138 0.0 0.9 0.00 0.00 0.00 89 1012.8
20260906054533 74 138 0.0 0.9 0.00 0.00 0.00 89 1012.9
20260906054033 74 138 0.0 0.0 0.00 0.00 0.00 89 1012.9
20260906053525 74 138 0.0 0.9 0.00 0.00 0.00 89 1013.0
20260906053021 74 138 0.0 0.9 0.00 0.00 0.00 89 1013.0
20260906052517 74 140 0.0 0.0 0.00 0.00 0.00 89 1012.9
20260906052007 74 140 0.0 0.0 0.00 0.00 0.00 89 1012.9
20260906051505 74 140 0.0 0.9 0.00 0.00 0.00 89 1012.8
20260906051003 74 140 0.0 0.9 0.00 0.00 0.00 89 1012.8
20260906050503 74 138 0.0 0.9 0.00 0.00 0.00 89 1012.8
20260906050002 74 138 0.0 1.7 0.00 0.00 0.00 89 1012.8
20260906045505 74 150 0.0 1.7 0.00 0.00 0.00 89 1012.8
20260906045244 74 108 0.0 0.9 0.00 0.00 0.00 89 1012.7
20260906044502 74 108 0.0 0.9 0.00 0.00 0.00 89 1012.7
20260906044006 74 108 0.0 0.9 0.00 0.00 0.00 88 1012.7
20260906043506 74 108 0.0 0.0 0.00 0.00 0.00 88 1012.6
20260906043257 74 108 0.0 0.9 0.00 0.00 0.00 88 1012.6
20260906042505 74 108 0.0 0.9 0.00 0.00 0.00 88 1012.6
20260906042007 74 108 0.0 0.9 0.00 0.00 0.00 88 1012.6
20260906041506 74 108 0.0 0.9 0.00 0.00 0.00 88 1012.6
20260906041007 74 108 0.0 0.9 0.00 0.00 0.00 88 1012.5
20260906040550 74 108 0.0 0.9 0.00 0.00 0.00 88 1012.5
20260906040535 74 108 0.0 0.9 0.00 0.00 0.00 88 1012.6
20260906035501 74 108 0.0 0.0 0.00 0.00 0.00 88 1012.6
20260906035003 74 108 0.0 0.0 0.00 0.00 0.00 88 1012.5
20260906034546 74 108 0.0 1.7 0.00 0.00 0.00 88 1012.6
20260906034530 74 108 0.0 1.7 0.00 0.00 0.00 88 1012.5
20260906033443 74 108 0.0 0.9 0.00 0.00 0.00 88 1012.7
20260906032939 75 108 0.0 0.0 0.00 0.00 0.00 87 1012.8
20260906032431 75 108 0.0 0.0 0.00 0.00 0.00 87 1012.8
20260906031931 75 108 0.0 0.0 0.00 0.00 0.00 87 1012.8
20260906031432 75 108 0.0 0.0 0.00 0.00 0.00 87 1013.0
20260906030931 75 108 0.0 0.9 0.00 0.00 0.00 87 1013.0
20260906030432 75 108 0.0 0.9 0.00 0.00 0.00 87 1013.1
20260906025932 75 108 0.0 0.9 0.00 0.00 0.00 86 1013.4
20260906025435 75 108 0.0 0.9 0.00 0.00 0.00 86 1013.2
20260906024933 75 108 0.0 0.9 0.00 0.00 0.00 86 1013.1
20260906024432 75 107 0.0 0.0 0.00 0.00 0.00 86 1013.2
20260906023931 75 107 0.0 0.0 0.00 0.00 0.00 86 1013.2
20260906023430 76 107 0.0 0.0 0.00 0.00 0.00 86 1013.5
20260906022933 76 107 0.0 0.0 0.00 0.00 0.00 85 1013.5
20260906022433 76 107 0.0 0.0 0.00 0.00 0.00 85 1013.6
20260906021923 76 107 0.0 0.0 0.00 0.00 0.00 85 1013.7
20260906021417 76 107 0.0 0.0 0.00 0.00 0.00 85 1013.7
20260906020913 76 107 0.0 0.9 0.00 0.00 0.00 85 1013.6
20260906020410 76 107 0.0 0.9 0.00 0.00 0.00 85 1013.8
20260906015907 76 108 0.9 0.9 0.00 0.00 0.00 85 1013.7
20260906015405 76 111 0.0 0.9 0.00 0.00 0.00 85 1014.0
20260906014906 76 113 0.0 0.9 0.00 0.00 0.00 85 1014.0
20260906014407 77 113 0.0 0.0 0.00 0.00 0.00 84 1013.9
20260906014143 77 113 0.0 0.0 0.00 0.00 0.00 84 1013.8
20260906013407 77 113 0.0 0.9 0.00 0.00 0.00 84 1013.7
20260906012908 77 113 0.0 1.7 0.00 0.00 0.00 83 1013.7
20260906012349 78 107 0.0 1.7 0.00 0.00 0.00 82 1013.6
20260906011844 78 100 0.0 0.9 0.00 0.00 0.00 81 1013.2
20260906011341 78 99 0.0 0.9 0.00 0.00 0.00 81 1013.1
20260906010833 78 313 0.0 0.0 0.00 0.00 0.00 81 1013.0
20260906010333 78 313 0.0 0.0 0.00 0.00 0.00 80 1013.0
20260906005832 78 313 0.0 0.0 0.00 0.00 0.00 79 1013.1
20260906005330 78 313 0.0 0.0 0.00 0.00 0.00 79 1013.4
20260906004833 78 313 0.0 0.9 0.00 0.00 0.00 79 1013.4
20260906004331 78 313 0.0 0.9 0.00 0.00 0.00 79 1013.5
20260906003831 78 313 0.0 0.0 0.00 0.00 0.00 79 1013.6
20260906003332 78 313 0.0 0.9 0.00 0.00 0.00 80 1013.7
20260906002832 78 313 0.0 1.7 0.00 0.00 0.00 80 1013.7
20260906002613 78 313 0.9 1.7 0.00 0.00 0.00 80 1013.6
20260906001821 79 313 0.0 0.0 0.00 0.00 0.00 79 1013.5
20260906001600 79 313 0.0 0.9 0.00 0.00 0.00 79 1013.4
20260906000815 79 313 0.0 0.9 0.00 0.00 0.00 79 1013.1
20260906000304 79 313 0.0 0.9 0.00 0.00 0.00 78 1012.7
20260905235800 78 313 0.0 0.9 0.00 0.00 0.00 80 1012.4
20260905235249 78 313 0.0 0.0 0.00 0.00 0.00 80 1011.9
20260905235030 80 313 0.0 0.0 0.00 0.00 0.00 78 1011.6
20260905234311 80 313 0.0 1.7 0.00 0.00 0.00 74 1011.4
20260905234258 80 313 0.0 1.7 0.00 0.00 0.00 76 1011.4
20260905233232 81 340 0.0 0.9 0.00 0.00 0.00 75 1011.9
20260905232728 81 29 0.0 2.6 0.00 0.00 0.00 75 1012.2
20260905232224 81 30 0.0 2.6 0.00 0.00 0.00 74 1012.5
20260905231720 82 56 0.0 2.6 0.00 0.00 0.00 72 1012.7
20260905231501 83 262 0.0 2.6 0.00 0.00 0.00 65 1012.7
20260905230719 83 319 0.0 1.7 0.00 0.00 0.00 65 1012.3
20260905230206 83 319 0.0 0.0 0.00 0.00 0.00 67 1011.9
20260905225704 83 319 0.0 0.0 0.00 0.00 0.00 67 1011.8
20260905225205 83 319 0.0 1.7 0.00 0.00 0.00 66 1011.6
20260905224707 83 319 0.0 1.7 0.00 0.00 0.00 65 1011.8
20260905224453 83 306 0.9 2.6 0.00 0.00 0.00 65 1011.5
20260905223741 86 254 1.7 5.2 0.00 0.00 0.00 60 1011.9
20260905223731 84 346 0.0 2.6 0.00 0.00 0.00 64 1011.7
20260905222703 87 323 1.7 5.2 0.00 0.00 0.00 60 1011.9
20260905222202 87 313 0.9 2.6 0.00 0.00 0.00 60 1011.9
20260905221658 88 290 0.0 1.7 0.00 0.00 0.00 61 1011.6
20260905221147 88 246 0.0 1.7 0.00 0.00 0.00 60 1011.4
20260905220643 88 292 0.0 2.6 0.00 0.00 0.00 59 1011.2
20260905220138 89 161 0.9 2.6 0.00 0.00 0.00 59 1011.5
20260905215634 91 252 0.9 2.6 0.00 0.00 0.00 56 1011.4
20260905215131 93 132 0.9 1.7 0.00 0.00 0.00 53 1011.4
20260905214633 94 61 0.0 0.0 0.00 0.00 0.00 50 1010.9
20260905214129 94 61 0.0 0.0 0.00 0.00 0.00 51 1010.8
20260905213618 93 61 0.0 0.9 0.00 0.00 0.00 53 1010.9
20260905213113 93 61 0.0 0.9 0.00 0.00 0.00 56 1010.8
20260905212604 94 61 0.0 0.0 0.00 0.00 0.00 52 1010.9
20260905212104 95 61 0.0 0.9 0.00 0.00 0.00 51 1010.7
20260905211602 95 61 0.0 1.7 0.00 0.00 0.00 48 1010.8
20260905211052 96 335 0.0 1.7 0.00 0.00 0.00 48 1010.9
20260905210541 96 331 0.9 1.7 0.00 0.00 0.00 47 1010.9
20260905210036 96 17 0.0 0.9 0.00 0.00 0.00 48 1010.9
20260905205532 95 355 0.0 0.9 0.00 0.00 0.00 52 1011.0
20260905205316 94 355 0.0 0.9 0.00 0.00 0.00 50 1011.2
20260905204533 94 355 0.0 0.0 0.00 0.00 0.00 52 1011.4
20260905204035 95 355 0.0 0.0 0.00 0.00 0.00 50 1011.4
20260905203531 94 355 0.0 0.9 0.00 0.00 0.00 50 1011.5
20260905203031 95 355 0.0 0.9 0.00 0.00 0.00 50 1011.7
20260905202818 96 355 0.0 1.7 0.00 0.00 0.00 47 1011.7
20260905202032 96 352 0.9 1.7 0.00 0.00 0.00 46 1011.9
20260905201531 97 5 0.0 0.9 0.00 0.00 0.00 45 1011.9
20260905201032 98 5 0.0 2.6 0.00 0.00 0.00 45 1011.9
20260905200534 98 5 0.9 2.6 0.00 0.00 0.00 45 1011.8
20260905200033 97 28 0.0 0.9 0.00 0.00 0.00 46 1011.9
20260905195821 96 28 0.0 1.7 0.00 0.00 0.00 48 1011.9
20260905195030 97 304 0.0 1.7 0.00 0.00 0.00 46 1011.8
20260905194531 99 5 0.0 2.6 0.00 0.00 0.00 46 1011.8
20260905194322 98 341 0.9 2.6 0.00 0.00 0.00 45 1011.9
20260905193521 99 323 0.9 2.6 0.00 0.00 0.00 45 1012.0
20260905193018 97 317 0.0 1.7 0.00 0.00 0.00 49 1012.0
20260905192514 98 337 0.0 1.7 0.00 0.00 0.00 47 1012.0
20260905192021 96 337 0.9 1.7 0.00 0.00 0.00 49 1012.0
20260905191507 97 284 0.0 3.5 0.00 0.00 0.00 48 1012.1
20260905191249 100 309 0.9 3.5 0.00 0.00 0.00 45 1012.1
20260905190506 99 327 1.7 3.5 0.00 0.00 0.00 43 1012.2
20260905190007 100 302 0.9 2.6 0.00 0.00 0.00 45 1012.3
20260905185504 100 306 1.7 2.6 0.00 0.00 0.00 44 1012.4
20260905185005 101 345 0.0 1.7 0.00 0.00 0.00 47 1012.4
20260905184530 98 270 0.0 2.6 0.00 0.00 0.00 47 1012.5
20260905183500 94 294 0.0 1.7 0.00 0.00 0.00 53 1012.6
20260905182957 96 294 0.0 1.7 0.00 0.00 0.00 49 1012.7
20260905182454 100 306 0.0 2.6 0.00 0.00 0.00 49 1012.8
20260905182016 98 321 0.0 1.7 0.00 0.00 0.00 47 1013.0
20260905182005 97 186 1.7 2.6 0.00 0.00 0.00 46 1012.8
20260905180932 97 291 0.0 1.7 0.00 0.00 0.00 48 1013.0
20260905180717 96 113 0.0 7.8 0.00 0.00 0.00 48 1013.1
20260905175932 96 332 0.9 7.8 0.00 0.00 0.00 50 1013.2
20260905175432 96 295 0.9 3.5 0.00 0.00 0.00 51 1013.4
20260905174933 97 308 1.7 1.7 0.00 0.00 0.00 51 1013.4
20260905174432 96 63 0.0 1.7 0.00 0.00 0.00 49 1013.2
20260905173931 96 154 0.0 1.7 0.00 0.00 0.00 49 1013.3
20260905173431 95 300 0.0 1.7 0.00 0.00 0.00 51 1013.3
20260905172931 95 281 0.0 1.7 0.00 0.00 0.00 52 1013.3
20260905172417 95 314 0.0 1.7 0.00 0.00 0.00 55 1013.4
20260905171910 94 258 0.0 1.7 0.00 0.00 0.00 53 1013.5
20260905171407 94 322 0.0 1.7 0.00 0.00 0.00 53 1013.5
20260905170904 95 222 0.0 0.9 0.00 0.00 0.00 53 1013.6
20260905170405 94 242 0.0 3.5 0.00 0.00 0.00 53 1013.6
20260905165904 94 242 1.7 3.5 0.00 0.00 0.00 52 1013.7
20260905165403 94 150 0.0 1.7 0.00 0.00 0.00 53 1013.8
20260905164906 93 65 0.0 1.7 0.00 0.00 0.00 57 1013.9
20260905164404 93 65 0.0 3.5 0.00 0.00 0.00 54 1014.0
20260905164152 94 333 0.9 3.5 0.00 0.00 0.00 55 1014.1
20260905163404 94 304 0.9 3.5 0.00 0.00 0.00 55 1014.2
20260905162903 93 310 0.0 3.5 0.00 0.00 0.00 56 1014.3
20260905162402 93 352 0.0 2.6 0.00 0.00 0.00 58 1014.3
20260905161904 93 136 0.9 3.5 0.00 0.00 0.00 58 1014.4
20260905161406 93 227 1.7 3.5 0.00 0.00 0.00 58 1014.3
20260905161155 92 348 0.0 1.7 0.00 0.00 0.00 59 1014.4
20260905160405 91 315 0.0 1.7 0.00 0.00 0.00 60 1014.4
20260905160211 91 86 0.9 1.7 0.00 0.00 0.00 58 1014.4
20260905155404 92 177 0.0 1.7 0.00 0.00 0.00 59 1014.5
20260905154854 91 302 0.0 1.7 0.00 0.00 0.00 60 1014.5
20260905154351 91 218 1.7 1.7 0.00 0.00 0.00 60 1014.5
20260905153847 91 249 0.0 1.7 0.00 0.00 0.00 61 1014.6
20260905153343 91 335 0.9 2.6 0.00 0.00 0.00 61 1014.7
20260905152831 90 292 0.9 2.6 0.00 0.00 0.00 62 1014.9
20260905152331 90 46 0.9 2.6 0.00 0.00 0.00 61 1014.9
20260905151831 90 13 0.9 2.6 0.00 0.00 0.00 62 1015.0
20260905151410 89 69 0.9 3.5 0.00 0.00 0.00 64 1015.0
20260905151353 90 312 0.9 2.6 0.00 0.00 0.00 64 1014.9
20260905150319 89 295 0.0 3.5 0.00 0.00 0.00 63 1014.9
20260905145840 88 278 0.9 1.7 0.00 0.00 0.00 64 1015.1
20260905145829 89 5 0.0 1.7 0.00 0.00 0.00 63 1015.1
20260905145050 88 132 0.9 1.7 0.00 0.00 0.00 63 1015.1
20260905144302 88 294 0.9 2.6 0.00 0.00 0.00 65 1015.1
20260905143806 87 26 0.0 2.6 0.00 0.00 0.00 67 1015.1
20260905143307 87 323 0.0 1.7 0.00 0.00 0.00 67 1015.1
20260905142805 87 236 0.0 1.7 0.00 0.00 0.00 70 1015.1
20260905142306 86 296 0.0 0.9 0.00 0.00 0.00 70 1015.1
20260905141805 86 296 0.0 1.7 0.00 0.00 0.00 71 1015.1
20260905141306 85 302 0.0 1.7 0.00 0.00 0.00 71 1015.1
20260905141053 85 37 0.0 1.7 0.00 0.00 0.00 72 1015.1
20260905140305 85 347 0.0 2.6 0.00 0.00 0.00 72 1015.1
20260905135805 84 302 0.9 2.6 0.00 0.00 0.00 75 1015.1
20260905135307 83 298 0.0 2.6 0.00 0.00 0.00 76 1015.1
20260905134804 83 328 0.0 1.7 0.00 0.00 0.00 78 1015.3
20260905134302 82 338 0.0 1.7 0.00 0.00 0.00 80 1015.3
20260905133805 81 316 0.9 1.7 0.00 0.00 0.00 81 1015.3
20260905133303 81 300 0.0 1.7 0.00 0.00 0.00 82 1015.4
20260905132805 80 300 0.9 1.7 0.00 0.00 0.00 84 1015.4
20260905132409 79 335 0.0 1.7 0.00 0.00 0.00 85 1015.3
20260905132349 80 335 0.0 1.7 0.00 0.00 0.00 85 1015.3
20260905131254 78 287 0.0 0.9 0.00 0.00 0.00 87 1015.4
20260905130741 78 13 0.0 0.9 0.00 0.00 0.00 88 1015.4
20260905130237 77 306 0.0 0.9 0.00 0.00 0.00 89 1015.5
20260905125737 77 337 0.0 0.0 0.00 0.00 0.00 90 1015.5
20260905125233 76 337 0.0 0.9 0.00 0.00 0.00 90 1015.4
20260905124730 76 337 0.0 1.7 0.00 0.00 0.00 91 1015.4
20260905124233 76 338 0.0 1.7 0.00 0.00 0.00 91 1015.4
20260905123727 75 303 0.0 0.0 0.00 0.00 0.00 92 1015.3
20260905123224 74 303 0.0 0.0 0.00 0.00 0.00 92 1015.3
20260905122713 74 303 0.0 0.0 0.00 0.00 0.00 92 1015.3
20260905122209 73 303 0.0 0.0 0.00 0.00 0.00 92 1015.3
20260905121708 73 303 0.0 0.0 0.00 0.00 0.00 92 1015.2
20260905121240 73 303 0.0 0.0 0.00 0.00 0.00 92 1015.1
20260905121226 73 303 0.0 0.0 0.00 0.00 0.00 92 1015.1
20260905120214 73 303 0.0 0.9 0.00 0.00 0.00 93 1014.9
20260905115945 73 303 0.0 0.9 0.00 0.00 0.00 93 1014.9
20260905115241 73 303 0.0 0.0 0.00 0.00 0.00 93 1014.9
20260905115225 73 303 0.0 0.0 0.00 0.00 0.00 93 1014.9
20260905114441 73 303 0.0 0.0 0.00 0.00 0.00 93 1014.7
20260905113716 72 303 0.0 0.0 0.00 0.00 0.00 93 1014.7
20260905113236 72 303 0.0 0.0 0.00 0.00 0.00 93 1014.7
20260905113222 72 303 0.0 0.0 0.00 0.00 0.00 93 1014.7
20260905112155 72 303 0.0 0.0 0.00 0.00 0.00 93 1014.5
20260905111644 72 303 0.0 0.0 0.00 0.00 0.00 93 1014.6
20260905111138 72 303 0.0 0.0 0.00 0.00 0.00 92 1014.6
20260905110635 73 303 0.0 0.0 0.00 0.00 0.00 92 1014.6
20260905110132 72 303 0.0 0.0 0.00 0.00 0.00 92 1014.5